QPF
0.00 0.00 0.00 0.00 0.00 0.00 0.00 0.00 0.00 0.00 0.00 0.00 0.00 0.00 0.00 0.00 0.00 0.00 0.00 0.00 0.00 0.00 0.00 0.00 0.00 0.00 0.00 0.00 0.00 0.00 0.00 0.00 0.00 0.00 0.00 0.00 0.00 0.00 0.00 0.00 0.00 0.00 0.00
0.00 0.00 0.00 0.00 0.00 0.00 0.00 0.00 0.00 0.00 0.00 0.00 0.00 0.00 0.00 0.00 0.00 0.00 0.00 0.00 0.00 0.00 0.00 0.00 0.00 0.00 0.00 0.00 0.00 0.00 0.00 0.00 0.00 0.00 0.00 0.00 0.00 0.00 0.00 0.00 0.00 0.00 0.00
0.00 0.00 0.00 0.00 0.00 0.00 0.00 0.00 0.00 0.00 0.00 0.00 0.00 0.00 0.00 0.00 0.00 0.00 0.00 0.00 0.00 0.00 0.00 0.00 0.00 0.00 0.00 0.00 0.00 0.00 0.00 0.00 0.00 0.00 0.00 0.00 0.00 0.00 0.00 0.00 0.00 0.00 0.00
0.00 0.00 0.00 0.00 0.00 0.00 0.00 0.01 0.00 0.00 0.00 0.00 0.00 0.00 0.00 0.00 0.00 0.00 0.00 0.00 0.00 0.00 0.00 0.00 0.00 0.00 0.00 0.00 0.00 0.00 0.00 0.00 0.00 0.00 0.00 0.00 0.00 0.00 0.00 0.00 0.00 0.00 0.00
0.01 0.01 0.00 0.00 0.00 0.01 0.01 0.02 0.02 0.01 0.01 0.00 0.00 0.00 0.00 0.00 0.00 0.00 0.00 0.00 0.00 0.00 0.00 0.00 0.00 0.00 0.00 0.00 0.00 0.00 0.00 0.00 0.00 0.00 0.00 0.00 0.00 0.00 0.00 0.00 0.00 0.00 0.00
0.04 0.03 0.02 0.01 0.02 0.02 0.02 0.02 0.03 0.03 0.02 0.02 0.01 0.00 0.00 0.00 0.00 0.00 0.00 0.00 0.00 0.00 0.00 0.00 0.00 0.00 0.00 0.00 0.00 0.00 0.00 0.00 0.00 0.00 0.00 0.00 0.00 0.00 0.00 0.00 0.00 0.00 0.00
0.05 0.05 0.05 0.04 0.04 0.04 0.04 0.05 0.06 0.06 0.05 0.04 0.03 0.01 0.00 0.00 0.00 0.00 0.00 0.00 0.00 0.00 0.00 0.00 0.00 0.00 0.00 0.00 0.00 0.00 0.00 0.00 0.00 0.00 0.00 0.00 0.00 0.00 0.00 0.00 0.00 0.00 0.00
0.05 0.05 0.05 0.05 0.06 0.07 0.07 0.07 0.07 0.06 0.06 0.07 0.04 0.03 0.01 0.00 0.00 0.00 0.00 0.00 0.00 0.00 0.00 0.00 0.00 0.00 0.00 0.00 0.00 0.00 0.00 0.00 0.00 0.00 0.00 0.00 0.00 0.00 0.00 0.00 0.00 0.00 0.00
0.04 0.05 0.05 0.05 0.06 0.08 0.08 0.09 0.10 0.10 0.10 0.10 0.08 0.06 0.02 0.00 0.01 0.00 0.01 0.01 0.00 0.00 0.00 0.01 0.00 0.00 0.00 0.00 0.00 0.00 0.00 0.00 0.00 0.00 0.00 0.00 0.00 0.00 0.00 0.00 0.00 0.00 0.00
0.02 0.03 0.04 0.05 0.06 0.07 0.08 0.09 0.12 0.13 0.13 0.10 0.09 0.07 0.05 0.03 0.02 0.01 0.01 0.02 0.02 0.01 0.01 0.01 0.01 0.01 0.00 0.00 0.00 0.00 0.00 0.00 0.00 0.00 0.00 0.00 0.00 0.00 0.00 0.00 0.00 0.00 0.00
0.01 0.02 0.03 0.04 0.04 0.05 0.07 0.09 0.12 0.13 0.13 0.12 0.11 0.11 0.11 0.07 0.04 0.03 0.03 0.02 0.03 0.03 0.02 0.01 0.01 0.01 0.01 0.01 0.01 0.01 0.00 0.00 0.00 0.00 0.00 0.00 0.00 0.00 0.00 0.00 0.00 0.00 0.00
0.00 0.01 0.02 0.03 0.04 0.05 0.06 0.09 0.12 0.14 0.14 0.13 0.12 0.12 0.13 0.11 0.08 0.07 0.07 0.06 0.05 0.05 0.04 0.03 0.02 0.02 0.02 0.02 0.02 0.03 0.03 0.02 0.02 0.01 0.01 0.01 0.01 0.01 0.01 0.00 0.00 0.00 0.00
0.00 0.00 0.01 0.02 0.03 0.05 0.07 0.09 0.11 0.12 0.14 0.13 0.12 0.11 0.11 0.12 0.13 0.13 0.12 0.09 0.07 0.06 0.05 0.05 0.05 0.05 0.05 0.06 0.07 0.10 0.10 0.10 0.08 0.06 0.05 0.05 0.05 0.05 0.03 0.02 0.01 0.01 0.00
0.00 0.00 0.00 0.01 0.02 0.03 0.04 0.06 0.08 0.10 0.12 0.13 0.13 0.12 0.11 0.11 0.14 0.15 0.17 0.19 0.17 0.14 0.13 0.12 0.12 0.13 0.14 0.17 0.20 0.22 0.21 0.22 0.20 0.17 0.15 0.14 0.12 0.09 0.07 0.05 0.03 0.01 0.00
0.00 0.00 0.00 0.00 0.01 0.02 0.03 0.05 0.06 0.07 0.09 0.10 0.12 0.13 0.12 0.13 0.15 0.19 0.23 0.28 0.31 0.30 0.25 0.23 0.24 0.26 0.26 0.28 0.31 0.29 0.28 0.30 0.28 0.26 0.24 0.20 0.16 0.12 0.09 0.06 0.04 0.02 0.01
0.00 0.00 0.00 0.00 0.00 0.01 0.02 0.03 0.04 0.05 0.07 0.07 0.08 0.11 0.13 0.14 0.16 0.19 0.22 0.25 0.28 0.32 0.31 0.26 0.25 0.28 0.31 0.31 0.33 0.31 0.30 0.31 0.28 0.25 0.21 0.17 0.12 0.09 0.06 0.04 0.03 0.02 0.01
0.00 0.00 0.00 0.00 0.00 0.00 0.01 0.02 0.02 0.03 0.04 0.04 0.05 0.06 0.07 0.08 0.09 0.11 0.14 0.17 0.21 0.25 0.28 0.26 0.26 0.28 0.30 0.30 0.30 0.27 0.23 0.20 0.17 0.14 0.12 0.09 0.07 0.05 0.03 0.02 0.01 0.01 0.01
0.00 0.00 0.00 0.00 0.00 0.00 0.01 0.01 0.01 0.02 0.02 0.03 0.03 0.03 0.04 0.05 0.06 0.07 0.09 0.12 0.15 0.19 0.22 0.22 0.21 0.21 0.20 0.19 0.17 0.14 0.11 0.09 0.07 0.06 0.05 0.04 0.03 0.02 0.01 0.01 0.01 0.00 0.00
0.00 0.00 0.00 0.00 0.00 0.00 0.00 0.01 0.01 0.01 0.02 0.02 0.02 0.03 0.03 0.04 0.04 0.06 0.08 0.10 0.11 0.13 0.15 0.15 0.15 0.14 0.11 0.09 0.08 0.06 0.04 0.03 0.02 0.02 0.02 0.01 0.01 0.01 0.00 0.00 0.00 0.00 0.00
0.00 0.00 0.00 0.00 0.00 0.00 0.00 0.01 0.01 0.01 0.01 0.01 0.02 0.03 0.04 0.04 0.05 0.06 0.08 0.09 0.10 0.10 0.10 0.09 0.09 0.08 0.07 0.05 0.04 0.03 0.02 0.01 0.01 0.00 0.00 0.00 0.00 0.00 0.00 0.00 0.00 0.00 0.00
0.00 0.00 0.00 0.00 0.00 0.00 0.00 0.00 0.00 0.00 0.00 0.01 0.01 0.02 0.03 0.04 0.05 0.05 0.06 0.07 0.07 0.07 0.06 0.06 0.05 0.05 0.04 0.03 0.02 0.01 0.01 0.00 0.00 0.00 0.00 0.00 0.00 0.00 0.00 0.00 0.00 0.00 0.00
0.00 0.00 0.00 0.00 0.00 0.00 0.00 0.00 0.00 0.00 0.01 0.02 0.03 0.03 0.03 0.03 0.03 0.04 0.05 0.05 0.04 0.04 0.03 0.03 0.03 0.03 0.02 0.01 0.00 0.00 0.00 0.00 0.00 0.00 0.00 0.00 0.00 0.00 0.00 0.00 0.00 0.00 0.00
0.00 0.00 0.00 0.00 0.00 0.00 0.00 0.00 0.00 0.00 0.00 0.01 0.01 0.02 0.02 0.02 0.02 0.02 0.03 0.04 0.04 0.03 0.02 0.01 0.01 0.01 0.00 0.00 0.00 0.00 0.00 0.00 0.00 0.00 0.00 0.00 0.00 0.00 0.00 0.00 0.00 0.00 0.00
0.00 0.00 0.00 0.00 0.00 0.00 0.00 0.00 0.00 0.00 0.00 0.01 0.01 0.02 0.02 0.01 0.01 0.02 0.02 0.02 0.02 0.01 0.01 0.00 0.00 0.00 0.00 0.00 0.00 0.00 0.00 0.00 0.00 0.00 0.00 0.00 0.00 0.00 0.00 0.00 0.00 0.00 0.00
0.00 0.00 0.00 0.00 0.00 0.00 0.00 0.00 0.00 0.00 0.00 0.00 0.00 0.01 0.01 0.01 0.01 0.01 0.00 0.00 0.00 0.00 0.00 0.00 0.00 0.00 0.00 0.00 0.00 0.00 0.00 0.00 0.00 0.00 0.00 0.00 0.00 0.00 0.00 0.00 0.00 0.00 0.00
0.00 0.00 0.00 0.00 0.00 0.00 0.00 0.00 0.00 0.00 0.00 0.00 0.00 0.00 0.00 0.00 0.00 0.00 0.00 0.00 0.00 0.00 0.00 0.00 0.00 0.00 0.00 0.00 0.00 0.00 0.00 0.00 0.00 0.00 0.00 0.00 0.00 0.00 0.00 0.00 0.00 0.00 0.00
MSLP
1020.12 1020.27 1020.38 1020.45 1020.52 1020.60 1020.69 1020.79 1020.91 1021.03 1021.12 1021.19 1021.22 1021.21 1021.18 1021.13 1021.08 1021.05 1021.04 1021.08 1021.14 1021.24 1021.37 1021.50 1021.65 1021.80 1021.93 1022.06 1022.17 1022.25 1022.32 1022.36 1022.39 1022.41 1022.44 1022.47 1022.51 1022.55 1022.59 1022.63 1022.65 1022.64 1022.62
1019.69 1019.82 1019.92 1020.00 1020.08 1020.18 1020.29 1020.43 1020.58 1020.74 1020.87 1020.98 1021.05 1021.09 1021.09 1021.06 1021.04 1021.01 1021.01 1021.04 1021.11 1021.20 1021.33 1021.47 1021.63 1021.78 1021.93 1022.07 1022.18 1022.27 1022.34 1022.39 1022.43 1022.47 1022.52 1022.57 1022.63 1022.70 1022.77 1022.83 1022.87 1022.89 1022.89
1019.18 1019.30 1019.40 1019.50 1019.60 1019.73 1019.88 1020.05 1020.24 1020.42 1020.60 1020.75 1020.87 1020.95 1020.99 1021.00 1020.99 1020.98 1020.98 1021.00 1021.05 1021.12 1021.23 1021.37 1021.52 1021.69 1021.85 1021.99 1022.12 1022.23 1022.32 1022.39 1022.45 1022.51 1022.58 1022.65 1022.73 1022.82 1022.90 1022.97 1023.02 1023.05 1023.07
1018.63 1018.75 1018.87 1018.99 1019.14 1019.30 1019.48 1019.69 1019.90 1020.12 1020.33 1020.52 1020.67 1020.79 1020.87 1020.92 1020.93 1020.93 1020.93 1020.93 1020.95 1021.00 1021.08 1021.20 1021.35 1021.51 1021.68 1021.85 1022.01 1022.14 1022.26 1022.36 1022.45 1022.54 1022.63 1022.72 1022.82 1022.91 1022.99 1023.05 1023.10 1023.13 1023.15
1018.07 1018.21 1018.35 1018.52 1018.70 1018.90 1019.12 1019.35 1019.58 1019.82 1020.05 1020.26 1020.45 1020.60 1020.72 1020.79 1020.83 1020.83 1020.82 1020.81 1020.80 1020.83 1020.88 1020.98 1021.11 1021.28 1021.46 1021.65 1021.84 1022.02 1022.18 1022.32 1022.45 1022.57 1022.68 1022.79 1022.88 1022.97 1023.03 1023.08 1023.11 1023.12 1023.13
1017.54 1017.68 1017.86 1018.06 1018.28 1018.51 1018.75 1019.00 1019.24 1019.49 1019.72 1019.95 1020.15 1020.33 1020.47 1020.57 1020.63 1020.65 1020.64 1020.61 1020.59 1020.59 1020.63 1020.71 1020.84 1021.01 1021.21 1021.43 1021.65 1021.87 1022.08 1022.27 1022.44 1022.59 1022.72 1022.83 1022.93 1023.00 1023.04 1023.06 1023.06 1023.05 1023.03
1017.03 1017.17 1017.36 1017.59 1017.83 1018.09 1018.35 1018.60 1018.84 1019.08 1019.32 1019.54 1019.76 1019.95 1020.12 1020.24 1020.32 1020.35 1020.35 1020.32 1020.30 1020.29 1020.32 1020.39 1020.52 1020.70 1020.93 1021.18 1021.44 1021.70 1021.96 1022.19 1022.40 1022.58 1022.73 1022.86 1022.95 1023.00 1023.02 1023.01 1022.97 1022.92 1022.88
1016.54 1016.67 1016.85 1017.08 1017.33 1017.60 1017.86 1018.10 1018.34 1018.57 1018.80 1019.02 1019.24 1019.45 1019.63 1019.77 1019.87 1019.93 1019.94 1019.93 1019.92 1019.92 1019.96 1020.04 1020.19 1020.38 1020.63 1020.91 1021.21 1021.51 1021.80 1022.08 1022.32 1022.54 1022.71 1022.85 1022.94 1022.98 1022.98 1022.94 1022.88 1022.80 1022.72
1016.08 1016.17 1016.32 1016.53 1016.77 1017.02 1017.27 1017.51 1017.73 1017.95 1018.17 1018.39 1018.61 1018.83 1019.02 1019.19 1019.32 1019.40 1019.45 1019.46 1019.47 1019.50 1019.56 1019.67 1019.83 1020.05 1020.32 1020.63 1020.95 1021.29 1021.61 1021.92 1022.20 1022.45 1022.65 1022.81 1022.91 1022.95 1022.94 1022.89 1022.80 1022.70 1022.59
1015.68 1015.69 1015.79 1015.95 1016.16 1016.38 1016.61 1016.83 1017.05 1017.27 1017.48 1017.71 1017.93 1018.16 1018.37 1018.56 1018.71 1018.82 1018.90 1018.95 1019.00 1019.06 1019.15 1019.29 1019.48 1019.72 1020.01 1020.34 1020.69 1021.04 1021.39 1021.73 1022.04 1022.32 1022.55 1022.74 1022.86 1022.92 1022.92 1022.86 1022.77 1022.65 1022.52
1015.36 1015.29 1015.32 1015.41 1015.57 1015.75 1015.96 1016.17 1016.38 1016.59 1016.82 1017.05 1017.29 1017.53 1017.75 1017.96 1018.13 1018.26 1018.37 1018.45 1018.53 1018.63 1018.76 1018.93 1019.14 1019.41 1019.72 1020.05 1020.41 1020.78 1021.15 1021.51 1021.85 1022.16 1022.43 1022.65 1022.81 1022.90 1022.92 1022.88 1022.78 1022.65 1022.51
1015.19 1015.03 1014.97 1015.00 1015.09 1015.23 1015.41 1015.60 1015.81 1016.04 1016.28 1016.52 1016.77 1017.02 1017.25 1017.46 1017.64 1017.79 1017.91 1018.02 1018.13 1018.26 1018.42 1018.61 1018.86 1019.14 1019.45 1019.80 1020.16 1020.53 1020.90 1021.28 1021.64 1021.99 1022.30 1022.56 1022.76 1022.88 1022.93 1022.91 1022.82 1022.69 1022.53
1015.20 1014.96 1014.82 1014.78 1014.81 1014.91 1015.05 1015.24 1015.45 1015.69 1015.94 1016.20 1016.46 1016.71 1016.94 1017.14 1017.32 1017.46 1017.59 1017.71 1017.83 1017.98 1018.16 1018.38 1018.64 1018.93 1019.24 1019.58 1019.94 1020.30 1020.68 1021.07 1021.45 1021.82 1022.17 1022.47 1022.71 1022.87 1022.95 1022.94 1022.86 1022.72 1022.55
1015.41 1015.12 1014.92 1014.81 1014.79 1014.84 1014.96 1015.14 1015.35 1015.60 1015.86 1016.13 1016.39 1016.64 1016.85 1017.04 1017.19 1017.31 1017.42 1017.54 1017.67 1017.82 1018.01 1018.24 1018.50 1018.79 1019.10 1019.43 1019.78 1020.14 1020.51 1020.89 1021.29 1021.68 1022.05 1022.38 1022.65 1022.84 1022.94 1022.94 1022.86 1022.72 1022.53
1015.82 1015.50 1015.26 1015.11 1015.04 1015.06 1015.16 1015.32 1015.53 1015.78 1016.05 1016.32 1016.57 1016.80 1016.98 1017.13 1017.25 1017.34 1017.43 1017.52 1017.64 1017.79 1017.97 1018.20 1018.46 1018.75 1019.05 1019.36 1019.69 1020.04 1020.40 1020.78 1021.17 1021.57 1021.94 1022.29 1022.57 1022.77 1022.87 1022.88 1022.79 1022.63 1022.42
1016.39 1016.07 1015.81 1015.64 1015.55 1015.54 1015.62 1015.77 1015.97 1016.21 1016.47 1016.73 1016.96 1017.15 1017.30 1017.41 1017.48 1017.53 1017.58 1017.64 1017.73 1017.87 1018.05 1018.27 1018.52 1018.79 1019.08 1019.38 1019.69 1020.01 1020.36 1020.72 1021.10 1021.48 1021.85 1022.19 1022.46 1022.64 1022.73 1022.72 1022.62 1022.44 1022.21
1017.07 1016.78 1016.53 1016.35 1016.24 1016.22 1016.28 1016.41 1016.60 1016.83 1017.07 1017.30 1017.50 1017.65 1017.75 1017.81 1017.83 1017.84 1017.84 1017.87 1017.94 1018.06 1018.22 1018.43 1018.67 1018.93 1019.20 1019.48 1019.77 1020.07 1020.39 1020.73 1021.08 1021.43 1021.77 1022.07 1022.30 1022.45 1022.51 1022.46 1022.33 1022.13 1021.88
1017.81 1017.55 1017.33 1017.15 1017.05 1017.01 1017.06 1017.17 1017.34 1017.54 1017.75 1017.95 1018.11 1018.22 1018.28 1018.29 1018.26 1018.22 1018.19 1018.19 1018.23 1018.33 1018.48 1018.67 1018.89 1019.13 1019.39 1019.65 1019.92 1020.19 1020.48 1020.79 1021.10 1021.41 1021.69 1021.94 1022.12 1022.21 1022.21 1022.12 1021.95 1021.72 1021.46
1018.54 1018.34 1018.15 1017.99 1017.89 1017.86 1017.89 1017.98 1018.12 1018.29 1018.47 1018.62 1018.74 1018.81 1018.82 1018.79 1018.72 1018.65 1018.59 1018.56 1018.58 1018.66 1018.79 1018.96 1019.17 1019.39 1019.63 1019.87 1020.12 1020.37 1020.62 1020.89 1021.15 1021.40 1021.63 1021.80 1021.91 1021.93 1021.87 1021.72 1021.50 1021.24 1020.97
1019.27 1019.11 1018.96 1018.83 1018.74 1018.70 1018.72 1018.79 1018.90 1019.04 1019.17 1019.29 1019.36 1019.39 1019.36 1019.29 1019.20 1019.10 1019.02 1018.97 1018.97 1019.03 1019.14 1019.29 1019.48 1019.69 1019.90 1020.12 1020.34 1020.57 1020.79 1021.01 1021.22 1021.42 1021.57 1021.67 1021.70 1021.64 1021.50 1021.30 1021.03 1020.75 1020.46
1019.97 1019.86 1019.74 1019.64 1019.56 1019.52 1019.53 1019.57 1019.65 1019.75 1019.85 1019.92 1019.96 1019.94 1019.89 1019.79 1019.67 1019.56 1019.46 1019.39 1019.38 1019.42 1019.51 1019.64 1019.81 1019.99 1020.18 1020.38 1020.58 1020.78 1020.97 1021.15 1021.32 1021.45 1021.53 1021.56 1021.50 1021.37 1021.16 1020.89 1020.58 1020.26 1019.96
1020.66 1020.59 1020.50 1020.42 1020.35 1020.31 1020.30 1020.33 1020.38 1020.44 1020.49 1020.52 1020.52 1020.47 1020.39 1020.27 1020.14 1020.01 1019.89 1019.82 1019.79 1019.81 1019.88 1019.98 1020.12 1020.28 1020.45 1020.63 1020.80 1020.97 1021.14 1021.29 1021.41 1021.49 1021.52 1021.47 1021.35 1021.14 1020.87 1020.53 1020.18 1019.82 1019.50
1021.34 1021.30 1021.24 1021.18 1021.12 1021.07 1021.05 1021.05 1021.06 1021.08 1021.09 1021.08 1021.04 1020.96 1020.85 1020.72 1020.57 1020.43 1020.31 1020.23 1020.18 1020.18 1020.22 1020.30 1020.41 1020.54 1020.68 1020.83 1020.99 1021.14 1021.29 1021.41 1021.50 1021.54 1021.51 1021.41 1021.23 1020.96 1020.62 1020.24 1019.84 1019.45 1019.10
1022.01 1021.99 1021.95 1021.89 1021.83 1021.78 1021.74 1021.71 1021.69 1021.66 1021.63 1021.58 1021.51 1021.40 1021.27 1021.12 1020.97 1020.82 1020.69 1020.59 1020.53 1020.51 1020.52 1020.57 1020.65 1020.75 1020.86 1020.99 1021.13 1021.26 1021.38 1021.49 1021.55 1021.56 1021.50 1021.35 1021.12 1020.81 1020.42 1019.99 1019.55 1019.13 1018.74
1022.61 1022.62 1022.59 1022.54 1022.47 1022.41 1022.34 1022.28 1022.22 1022.16 1022.09 1022.00 1021.90 1021.77 1021.62 1021.46 1021.30 1021.15 1021.01 1020.91 1020.83 1020.79 1020.77 1020.79 1020.84 1020.90 1020.99 1021.09 1021.20 1021.31 1021.42 1021.50 1021.54 1021.53 1021.44 1021.26 1021.00 1020.65 1020.23 1019.77 1019.29 1018.83 1018.42
1023.13 1023.14 1023.11 1023.06 1022.99 1022.91 1022.82 1022.73 1022.64 1022.54 1022.44 1022.32 1022.19 1022.04 1021.89 1021.73 1021.56 1021.41 1021.28 1021.16 1021.08 1021.01 1020.97 1020.96 1020.97 1021.01 1021.06 1021.13 1021.21 1021.29 1021.37 1021.43 1021.45 1021.41 1021.30 1021.10 1020.81 1020.44 1020.00 1019.52 1019.02 1018.54 1018.10
Thickness
5692 5690 5687 5685 5683 5681 5679 5677 5675 5673 5671 5669 5667 5665 5663 5661 5659 5657 5655 5653 5651 5649 5646 5644 5641 5639 5637 5634 5633 5632 5630 5628 5626 5625 5623 5622 5621 5620 5619 5618 5617 5617 5617
5692 5689 5686 5684 5681 5679 5677 5675 5672 5670 5668 5665 5663 5661 5659 5657 5655 5652 5650 5648 5646 5643 5641 5638 5635 5633 5631 5628 5626 5624 5623 5622 5620 5618 5617 5616 5615 5614 5613 5612 5611 5611 5611
5690 5688 5686 5683 5680 5678 5675 5672 5668 5665 5663 5660 5658 5656 5654 5652 5650 5647 5645 5643 5640 5637 5635 5632 5630 5627 5624 5622 5620 5618 5616 5615 5613 5612 5611 5609 5608 5607 5607 5606 5605 5605 5605
5689 5686 5684 5682 5679 5676 5672 5668 5665 5661 5657 5655 5652 5650 5648 5646 5644 5641 5639 5636 5633 5631 5628 5626 5623 5620 5617 5615 5613 5610 5608 5607 5606 5605 5603 5602 5601 5601 5600 5600 5599 5598 5598
5687 5684 5682 5680 5676 5672 5669 5665 5662 5658 5654 5650 5647 5644 5642 5640 5638 5635 5632 5629 5626 5624 5621 5618 5616 5613 5610 5608 5605 5603 5601 5599 5597 5596 5596 5595 5594 5593 5592 5592 5592 5592 5591
5684 5681 5678 5675 5671 5668 5665 5661 5657 5653 5649 5645 5641 5637 5634 5632 5630 5628 5625 5622 5619 5616 5613 5610 5608 5605 5602 5600 5598 5595 5593 5591 5589 5588 5587 5586 5585 5585 5584 5584 5584 5584 5584
5680 5676 5674 5670 5667 5663 5661 5656 5651 5646 5641 5636 5629 5626 5624 5623 5621 5619 5617 5614 5611 5608 5605 5603 5600 5597 5594 5592 5589 5587 5585 5583 5580 5579 5578 5577 5576 5576 5575 5576 5576 5576 5576
5674 5671 5669 5665 5662 5658 5654 5650 5645 5640 5636 5628 5621 5614 5611 5612 5613 5612 5608 5606 5604 5601 5598 5595 5592 5589 5586 5583 5581 5578 5576 5575 5572 5570 5569 5567 5566 5566 5566 5566 5567 5568 5568
5669 5667 5664 5661 5657 5653 5649 5645 5640 5634 5629 5621 5616 5608 5602 5605 5603 5601 5599 5598 5596 5592 5590 5587 5584 5581 5578 5575 5572 5570 5567 5565 5563 5561 5559 5557 5556 5555 5555 5556 5557 5558 5559
5663 5661 5658 5655 5652 5648 5644 5640 5636 5630 5623 5616 5607 5603 5600 5598 5591 5591 5589 5586 5584 5583 5581 5578 5575 5572 5569 5567 5564 5560 5557 5554 5552 5550 5549 5547 5546 5545 5545 5545 5546 5547 5548
5654 5653 5651 5649 5646 5642 5639 5634 5629 5624 5617 5611 5603 5595 5589 5583 5580 5576 5578 5575 5570 5571 5570 5568 5566 5563 5561 5558 5555 5551 5547 5543 5540 5539 5537 5536 5535 5534 5533 5534 5534 5535 5537
5644 5644 5643 5641 5639 5635 5632 5628 5623 5617 5611 5605 5598 5589 5582 5575 5571 5565 5564 5562 5557 5557 5555 5554 5553 5552 5549 5546 5544 5540 5535 5531 5529 5527 5525 5524 5522 5521 5521 5521 5521 5522 5524
5633 5633 5633 5632 5630 5627 5624 5619 5614 5609 5603 5597 5590 5584 5576 5571 5563 5557 5551 5547 5540 5537 5535 5535 5536 5536 5535 5533 5531 5527 5523 5519 5516 5513 5512 5510 5509 5508 5507 5507 5508 5509 5511
5622 5622 5622 5621 5620 5617 5614 5610 5605 5600 5594 5588 5581 5574 5567 5560 5550 5542 5535 5527 5519 5515 5514 5514 5514 5516 5518 5517 5516 5513 5509 5506 5501 5499 5498 5497 5495 5494 5494 5494 5495 5496 5498
5612 5612 5611 5610 5608 5606 5603 5599 5595 5589 5583 5576 5569 5561 5553 5545 5535 5527 5519 5513 5506 5503 5503 5500 5497 5498 5500 5501 5500 5499 5496 5493 5489 5486 5485 5483 5482 5481 5481 5481 5482 5484 5485
5601 5601 5600 5598 5596 5593 5590 5586 5581 5576 5569 5562 5554 5546 5537 5528 5519 5511 5503 5498 5495 5493 5493 5488 5485 5484 5484 5485 5485 5484 5482 5479 5477 5475 5474 5472 5470 5469 5470 5471 5471 5472 5474
5588 5588 5586 5584 5582 5579 5576 5572 5566 5561 5554 5545 5537 5529 5519 5510 5502 5494 5488 5483 5480 5478 5477 5472 5470 5469 5469 5471 5472 5471 5469 5468 5465 5463 5462 5461 5460 5459 5459 5460 5460 5460 5461
5574 5573 5572 5569 5567 5563 5560 5556 5550 5544 5537 5530 5521 5513 5504 5496 5487 5480 5475 5471 5467 5466 5464 5462 5459 5457 5457 5458 5459 5458 5457 5455 5453 5452 5452 5451 5450 5449 5448 5448 5448 5447 5447
5560 5559 5557 5554 5551 5548 5544 5539 5534 5528 5521 5515 5507 5500 5491 5484 5476 5469 5464 5460 5458 5456 5455 5454 5451 5449 5448 5449 5448 5448 5446 5444 5442 5441 5441 5440 5438 5437 5436 5435 5434 5434 5434
5546 5544 5542 5539 5536 5533 5529 5525 5519 5513 5507 5501 5495 5488 5481 5474 5467 5461 5456 5452 5450 5448 5447 5446 5443 5442 5440 5440 5439 5438 5435 5433 5432 5431 5429 5427 5425 5423 5422 5421 5421 5420 5419
5533 5531 5529 5526 5524 5521 5516 5511 5506 5500 5495 5489 5483 5477 5472 5466 5461 5456 5450 5446 5443 5441 5439 5437 5436 5435 5433 5432 5430 5428 5425 5422 5419 5418 5416 5414 5412 5411 5408 5407 5406 5405 5404
5520 5518 5516 5514 5511 5508 5503 5499 5493 5488 5483 5478 5473 5468 5463 5459 5455 5452 5447 5442 5438 5435 5432 5430 5428 5427 5424 5422 5419 5417 5413 5408 5405 5405 5402 5401 5400 5398 5397 5395 5392 5391 5389
5508 5506 5503 5500 5497 5494 5491 5487 5482 5476 5472 5468 5463 5459 5455 5451 5447 5443 5440 5436 5433 5431 5428 5424 5421 5418 5415 5413 5409 5406 5402 5397 5394 5394 5390 5389 5389 5385 5384 5381 5379 5377 5374
5496 5493 5490 5487 5485 5482 5479 5475 5471 5466 5462 5458 5454 5450 5446 5443 5441 5437 5433 5429 5426 5423 5421 5418 5414 5411 5408 5405 5402 5398 5393 5389 5386 5383 5379 5374 5374 5372 5371 5368 5365 5362 5359
5485 5482 5478 5475 5473 5471 5469 5466 5461 5457 5453 5449 5446 5443 5440 5436 5436 5432 5426 5422 5419 5416 5414 5411 5408 5404 5402 5398 5395 5389 5382 5376 5371 5371 5368 5361 5358 5355 5354 5352 5350 5347 5345
5475 5472 5468 5465 5463 5461 5461 5458 5453 5449 5445 5441 5438 5435 5433 5431 5428 5424 5418 5414 5410 5407 5404 5402 5398 5395 5391 5387 5384 5379 5371 5362 5354 5351 5352 5346 5341 5336 5335 5336 5333 5331 5329